Regional Weather Roundup
Issued by NWS

Home | Current Version | Previous Version | Text Only | Print | Product List | Glossary Off
Versions: 1 2 3 4 5 6 7 8 9 10 11 12 13 14 15 16 17 18 19 20 21 22 23 24 25 26 27 28 29 30 31 32 33 34 35 36 37 38 39 40 41 42 43 44 45 46 47 48 49 50

000
ASUS43 KMKX 032211
RWRWI

WISCONSIN REGIONAL WEATHER ROUNDUP
NATIONAL WEATHER SERVICE MILWAUKEE/SULLIVAN WI
500 PM CDT FRI JUL 03 2015

NOTE: "FAIR" INDICATES FEW OR NO CLOUDS BELOW 12,000 FEET WITH NO
SIGNIFICANT WEATHER AND/OR OBSTRUCTIONS TO VISIBILITY.

WIZ001-002-006>008-014>016-023>028-032300-
NORTHWEST WISCONSIN

CITY           SKY/WX    TMP DP  RH WIND       PRES   REMARKS
SUPERIOR ARPT  MOSUNNY   80  64  57 NW5       29.84S HX  82
ASHLAND        MOSUNNY   79  65  62 SW7       29.85S HAZE    HX  81
HAYWARD        MOSUNNY   76  62  62 SW7       29.89F
SIREN          PTSUNNY   77  62  59 SW7       29.89F
CUMBERLAND     MOSUNNY   75  57  53 W9        29.91S
RICE LAKE      MOSUNNY   77  59  53 SW8       29.91F
CHETEK         MOSUNNY   76  59  55 MISG      29.91F
LADYSMITH      MOSUNNY   76  60  56 SW9G16    29.92F
EAU CLAIRE     SUNNY     77  58  51 SW8       29.91F
MENOMONIE      SUNNY     77  58  51 SW8       29.91F
NEW RICHMOND   SUNNY     77  59  53 W9        29.91F
OSCEOLA        SUNNY     78  60  52 W9        29.92F HX  80
$$

WIZ003>005-009-010-017-018-032300-
NORTH CENTRAL WISCONSIN

CITY           SKY/WX    TMP DP  RH WIND       PRES   REMARKS
MANITOWISH WTR PTSUNNY   72  61  68 W6        29.89F
ARBOR VITAE    MOSUNNY   75  61  61 W7        29.90F
WOODRUFF       MOSUNNY   75  61  61 W7        29.90F
RHINELANDER    PTSUNNY   74  54  49 W10       29.92S
EAGLE RIVER    SUNNY     73  56  54 W12       29.90S
LAND O LAKES   SUNNY     74  58  57 SW7       29.90S
PHILLIPS       CLOUDY    74  60  61 W5        29.90S
TOMAHAWK       PTSUNNY   73  56  54 W6        29.91F
MEDFORD        MOSUNNY   73  56  55 SW8       29.92F
MERRILL        MOSUNNY   74  56  53 W8        29.92F
$$

WIZ029-030-035-036-043>047-032300-
CENTRAL WISCONSIN

CITY           SKY/WX    TMP DP  RH WIND       PRES   REMARKS
WAUSAU         PTSUNNY   75  55  49 W8        29.90F
MOSINEE        MOSUNNY   73  57  56 W12       29.93F
MARSHFIELD     MOSUNNY   76  56  49 W10       29.92F
STEVENS POINT  SUNNY     74  55  51 W8        29.93S
WAUPACA        MOSUNNY   78  53  41 SW7       29.91F
WAUTOMA        MOSUNNY   79  50  36 W9        29.92F
WISC RAPIDS    SUNNY     77  53  43 W9        29.93F
CAMP DOUGLAS   SUNNY     76  60  57 SW8       29.92F
$$

WIZ011>013-019>022-031-037>040-048>050-032300-
NORTHEAST WISCONSIN

CITY           SKY/WX    TMP DP  RH WIND       PRES   REMARKS
ANTIGO         CLOUDY    71  57  61 W10       29.92F
SHAWANO        MOSUNNY   78  51  38 SW12      29.91S
OCONTO         PTSUNNY   76  54  46 SW10      29.89S
STURGEON BAY   PTSUNNY   73  54  49 SW9       29.92F
GREEN BAY      PTSUNNY   76  56  49 SW8       29.91F
MANITOWOC      MOSUNNY   71  48  43 MISG      29.92F
APPLETON       PTSUNNY   73  50  43 W8        29.93F
CLINTONVILLE   MOSUNNY   77  50  38 SW9G16    29.90F
OSHKOSH        MOSUNNY   75  53  46 W5        29.92F
$$

WIZ032>034-041-042-053>061-032300-
SOUTHWEST WISCONSIN

CITY           SKY/WX    TMP DP  RH WIND       PRES   REMARKS
LA CROSSE      SUNNY     78  57  48 SW6       29.92F
SPARTA         SUNNY     77  53  42 W7        29.93F
VIROQUA        PTSUNNY   75  56  52 NW7       29.95F
BOSCOBEL       MOSUNNY   78  57  48 NW7       29.94F
PRAIRIE DU CHI MOSUNNY   75  52  44 S3        29.94S
PLATTEVILLE    SUNNY     73  52  46 W5        29.96S
$$

WIZ056-057-062-063-064-067-068-032300-
SOUTH CENTRAL WISCONSIN

CITY           SKY/WX    TMP DP  RH WIND       PRES   REMARKS
REEDSBURG      MOSUNNY   74  57  55 W3        29.93F
BARABOO/DELLS  MOSUNNY   75  53  44 W7        29.94F
LONE ROCK      SUNNY     76  52  43 W5        29.94F
MINERAL POINT  SUNNY     75  52  43 W5        29.96S
MADISON        PTSUNNY   76  52  43 W5        29.93F
MIDDLETON      SUNNY     76  49  38 NW5       29.94F
WATERTOWN      MOSUNNY   75  57  52 SW6       29.93F
MONROE         SUNNY     75  54  46 CALM      29.95S
JANESVILLE     MOSUNNY   77  54  44 CALM      29.93F
$$

WIZ051-052-058>065-066-070>072-032300-
SOUTHEAST WISCONSIN

CITY           SKY/WX    TMP DP  RH WIND       PRES   REMARKS
MILWAUKEE      PTSUNNY   69  52  54 E9        29.94F
WAUKESHA       MOSUNNY   73  54  49 W6        29.94F
MILWAUKEE/TIMM SUNNY     72  45  37 SE7       29.95S
RACINE         SUNNY     69  54  58 E8        29.96S
BURLINGTON     SUNNY     73  55  52 CALM      29.93F
KENOSHA        SUNNY     72  53  51 E7        29.94F
FOND DU LAC    MOSUNNY   75  52  44 SW7       29.93F
SHEBOYGAN      MOSUNNY   71  48  43 S9        29.93F
WEST BEND      MOSUNNY   72  50  46 SE6       29.93F
JUNEAU         MOSUNNY   74  55  52 SW5       29.95S
$$

LSZ147-162-032300-
LAKE SUPERIOR

STATION/POSITION TIME  TEMP    WIND        PRES    WAVE
                       AIR SEA DIR/SP/G            HT/PER
                 (UTC) (F)     (DEG/KT/KT) (MB)    (FT/S)
W MID LAKE BUOY  2150   48 39  230/  4/  6 1010.2R   2/ 4
DEVILS ISLAND    2200   66     250/ 12/ 15 1010.1S
SAXON HARBOR     2100   78     250/  5/  9 1010.5
$$

LMZ867-665-643>646-032300-
LAKE MICHIGAN

STATION/POSITION TIME  TEMP    WIND        PRES    WAVE
                       AIR SEA DIR/SP/G            HT/PER
                 (UTC) (F)     (DEG/KT/KT) (MB)    (FT/S)
CHAMBERS ISLAND  2100   71     190/  6/ 15 1012.2F
S GREEN BAY BUOY 2200   71 69  200/ 10/ 14 1013.6F
N MID LAKE BUOY  2150   50 44  200/ 12/ 14 1012.3S   2/ 3
NORTHPORT PIER   2100   69     150/  5/  8 1011.9F
SISTER BAY       2114   73     230/ 13/ 17   N/A
ALGOMA LAKESHORE 2055          220/ 14/ 16   N/A
KEWAUNEE LAKESHO 2100   63     190/ 12/ 15 1012.7F
SHEBOYGAN LAKESH 2200   62     180/ 13/ 14 1013.7F
PORT WASHINGTON  2100   66     170/  5/  7 1014.9F
ATWATER BUOY     2200   62 62  150/  6/  8 1015.1F
MILWAUKEE LAKESH 2100   61     140/  4/  5   N/A
KENOSHA   LAKESH 2200   67     130/  3/  3 1013.5F
$$

TC  - TEMPERATURE IN CELSIUS
VSB - VISIBILITY IN STATUTE MILES
WCI - WIND CHILL INDEX
HX  - HEAT INDEX



USA.gov is the U.S. government's official web portal to all federal, state and local government web resources and services.